TimeEDT,TemperatureF,Dew PointF,Humidity,Sea Level PressureIn,VisibilityMPH,Wind Direction,Wind SpeedMPH,Gust SpeedMPH,PrecipitationIn,Events,Conditions,WindDirDegrees,DateUTC
12:56 AM,69.1,64.9,87,30.26,10.0,Calm,Calm,-,N/A,,Clear,0,2013-05-30 04:56:00
2:56 AM,68.0,64.0,87,30.26,10.0,South,6.9,-,N/A,,Clear,190,2013-05-30 06:56:00
3:56 AM,68.0,64.9,90,30.26,7.0,South,5.8,-,N/A,,Clear,190,2013-05-30 07:56:00
4:56 AM,66.9,64.9,93,30.27,9.0,South,5.8,-,N/A,,Clear,190,2013-05-30 08:56:00
5:56 AM,70.0,68.0,93,30.27,7.0,Calm,Calm,-,N/A,,Clear,0,2013-05-30 09:56:00
7:56 AM,75.9,68.0,76,30.31,10.0,SW,4.6,-,N/A,,Clear,220,2013-05-30 11:56:00
8:56 AM,79.0,66.9,66,30.31,10.0,WSW,9.2,-,N/A,,Clear,240,2013-05-30 12:56:00
9:56 AM,81.0,68.0,65,30.30,10.0,SW,9.2,-,N/A,,Partly Cloudy,220,2013-05-30 13:56:00
10:56 AM,82.0,66.9,60,30.29,10.0,Variable,5.8,-,N/A,,Mostly Cloudy,0,2013-05-30 14:56:00
11:56 AM,84.0,66.9,56,30.28,10.0,Calm,Calm,-,N/A,,Mostly Cloudy,0,2013-05-30 15:56:00
12:56 PM,82.0,69.1,65,30.28,10.0,Calm,Calm,-,N/A,,Overcast,0,2013-05-30 16:56:00
1:56 PM,84.0,68.0,58,30.26,10.0,Calm,Calm,-,N/A,,Mostly Cloudy,0,2013-05-30 17:56:00
2:56 PM,84.9,68.0,57,30.25,10.0,Variable,3.5,-,N/A,,Overcast,0,2013-05-30 18:56:00
3:56 PM,84.0,68.0,58,30.24,6.0,South,11.5,18.4,N/A,,Haze,180,2013-05-30 19:56:00
5:56 PM,82.9,69.1,63,30.24,10.0,South,12.7,-,N/A,,Scattered Clouds,170,2013-05-30 21:56:00
6:56 PM,81.0,69.1,67,30.25,10.0,South,9.2,-,N/A,,Clear,170,2013-05-30 22:56:00
7:56 PM,78.1,69.1,74,30.25,10.0,South,6.9,-,N/A,,Clear,170,2013-05-30 23:56:00
8:56 PM,75.0,69.1,82,30.25,10.0,Calm,Calm,-,N/A,,Clear,0,2013-05-31 00:56:00
9:56 PM,73.0,69.1,87,30.26,10.0,SSE,4.6,-,N/A,,Clear,160,2013-05-31 01:56:00
10:56 PM,72.0,69.1,91,30.25,10.0,Calm,Calm,-,N/A,,Clear,0,2013-05-31 02:56:00